When you browse on this site, cookies collect data to enhance your experience and personalize the content and advertising you see.
Visit our Privacy Policy to learn more. By continuing to use the site, you agree to this use of cookies and data.
  • In Hungary
  • List of Countries
  • For 7 days
  • Water Temperature
  • Weather Map
  • News
  • Weather Widgets
  • user-avatar
    Login

    Hourly Weather Heliconia

    Today, 24 August, Saturday

    Time Temperature Precipitation Wind Pressure Humidity
    00:00 +18°C° 0 mm 1 mps 637 mmHg 91%
    01:00 +16°C° 0 mm 0 mps 637 mmHg 92%
    02:00 +16°C° 0 mm 0 mps 637 mmHg 92%
    03:00 +16°C° 0 mm 0 mps 637 mmHg 92%
    04:00 +15°C° 0 mm 0 mps 636 mmHg 92%
    05:00 +16°C° 0 mm 0 mps 637 mmHg 91%
    06:00 +17°C° 0 mm 0 mps 637 mmHg 89%
    07:00 +17°C° 0 mm 0 mps 637 mmHg 87%
    08:00 +20°C° 0 mm 0 mps 638 mmHg 75%
    09:00 +25°C° 0 mm 1 mps 639 mmHg 63%
    10:00 +28°C° 0 mm 1 mps 640 mmHg 51%
    11:00 +29°C° 0.1 mm 1 mps 640 mmHg 47%
    12:00 +30°C° 0.1 mm 1 mps 640 mmHg 42%
    13:00 +32°C° 0.1 mm 1 mps 640 mmHg 38%
    14:00 +31°C° 0.1 mm 1 mps 639 mmHg 40%
    15:00 +31°C° 0.1 mm 1 mps 638 mmHg 43%
    16:00 +30°C° 0.1 mm 1 mps 638 mmHg 45%
    17:00 +27°C° 0.4 mm 1 mps 638 mmHg 57%
    18:00 +24°C° 0.4 mm 1 mps 637 mmHg 68%
    19:00 +22°C° 0.4 mm 1 mps 637 mmHg 79%
    20:00 +21°C° 0.6 mm 1 mps 637 mmHg 83%
    21:00 +20°C° 0.6 mm 1 mps 637 mmHg 86%
    22:00 +19°C° 0.6 mm 1 mps 637 mmHg 90%
    23:00 +19°C° 0.1 mm 1 mps 637 mmHg 90%

    Tomorrow, 25 August, Sunday

    Time Temperature Precipitation Wind Pressure Humidity
    00:00 +17°C° 0.1 mm 0 mps 637 mmHg 91%
    01:00 +16°C° 0.1 mm 0 mps 637 mmHg 91%
    02:00 +16°C° 0.1 mm 0 mps 637 mmHg 92%
    03:00 +16°C° 0.1 mm 0 mps 636 mmHg 93%
    04:00 +16°C° 0.1 mm 0 mps 636 mmHg 94%
    05:00 +16°C° 0.1 mm 0 mps 637 mmHg 93%
    06:00 +17°C° 0.1 mm 0 mps 637 mmHg 92%
    07:00 +17°C° 0.1 mm 0 mps 637 mmHg 91%
    08:00 +20°C° 0 mm 0 mps 638 mmHg 80%
    09:00 +22°C° 0 mm 0 mps 639 mmHg 68%
    10:00 +27°C° 0 mm 1 mps 640 mmHg 57%
    11:00 +28°C° 0.1 mm 1 mps 640 mmHg 51%
    12:00 +30°C° 0.1 mm 1 mps 639 mmHg 46%
    13:00 +31°C° 0.1 mm 1 mps 639 mmHg 41%
    14:00 +31°C° 0.1 mm 1 mps 639 mmHg 41%
    15:00 +30°C° 0.1 mm 1 mps 638 mmHg 41%
    16:00 +30°C° 0.1 mm 1 mps 637 mmHg 42%
    17:00 +27°C° 0.2 mm 1 mps 637 mmHg 52%
    18:00 +24°C° 0.2 mm 1 mps 637 mmHg 63%
    19:00 +22°C° 0.2 mm 1 mps 636 mmHg 74%
    20:00 +21°C° 0.5 mm 1 mps 636 mmHg 78%
    21:00 +20°C° 0.5 mm 1 mps 637 mmHg 82%
    22:00 +19°C° 0.5 mm 1 mps 637 mmHg 86%
    23:00 +19°C° 0.1 mm 1 mps 637 mmHg 86%

    Day after tomorrow, 26 August, Monday

    Time Temperature Precipitation Wind Pressure Humidity
    00:00 +17°C° 0.1 mm 0 mps 637 mmHg 87%
    01:00 +16°C° 0.1 mm 0 mps 636 mmHg 87%
    02:00 +16°C° 0 mm 0 mps 636 mmHg 88%
    03:00 +16°C° 0 mm 0 mps 636 mmHg 89%
    04:00 +16°C° 0 mm 0 mps 636 mmHg 90%
    05:00 +16°C° 0 mm 0 mps 636 mmHg 88%
    06:00 +17°C° 0 mm 0 mps 637 mmHg 86%
    07:00 +17°C° 0 mm 0 mps 637 mmHg 85%
    08:00 +20°C° 0 mm 0 mps 638 mmHg 74%
    09:00 +24°C° 0 mm 1 mps 639 mmHg 63%
    10:00 +27°C° 0 mm 1 mps 640 mmHg 52%
    11:00 +28°C° 0.2 mm 1 mps 639 mmHg 50%
    12:00 +29°C° 0.2 mm 1 mps 639 mmHg 47%
    13:00 +30°C° 0.2 mm 1 mps 639 mmHg 45%
    14:00 +29°C° 0.3 mm 1 mps 638 mmHg 50%
    15:00 +28°C° 0.3 mm 1 mps 637 mmHg 54%
    16:00 +27°C° 0.3 mm 1 mps 637 mmHg 59%
    17:00 +25°C° 0.6 mm 1 mps 636 mmHg 67%
    18:00 +23°C° 0.6 mm 1 mps 636 mmHg 75%
    19:00 +21°C° 0.6 mm 1 mps 636 mmHg 83%
    20:00 +20°C° 0.4 mm 1 mps 636 mmHg 85%
    21:00 +20°C° 0.4 mm 1 mps 637 mmHg 87%
    22:00 +19°C° 0.4 mm 1 mps 637 mmHg 89%
    23:00 +17°C° 0 mm 0 mps 637 mmHg 90%

    27 August, Tuesday

    Time Temperature Precipitation Wind Pressure Humidity
    00:00 +16°C° 0 mm 0 mps 636 mmHg 90%
    01:00 +16°C° 0 mm 0 mps 636 mmHg 90%
    02:00 +16°C° 0 mm 0 mps 636 mmHg 91%
    03:00 +16°C° 0 mm 0 mps 636 mmHg 92%
    04:00 +15°C° 0 mm 0 mps 636 mmHg 92%
    05:00 +16°C° 0 mm 0 mps 636 mmHg 91%
    06:00 +17°C° 0 mm 0 mps 637 mmHg 89%
    07:00 +17°C° 0 mm 0 mps 637 mmHg 88%
    08:00 +20°C° 0 mm 0 mps 638 mmHg 77%
    09:00 +24°C° 0 mm 1 mps 639 mmHg 65%
    10:00 +27°C° 0 mm 1 mps 640 mmHg 54%
    11:00 +28°C° 0.2 mm 1 mps 639 mmHg 51%
    12:00 +29°C° 0.2 mm 1 mps 639 mmHg 47%
    13:00 +31°C° 0.2 mm 1 mps 638 mmHg 44%
    14:00 +30°C° 0.1 mm 1 mps 638 mmHg 43%
    15:00 +30°C° 0.1 mm 1 mps 637 mmHg 43%
    16:00 +30°C° 0.1 mm 1 mps 637 mmHg 43%
    17:00 +27°C° 0.1 mm 1 mps 637 mmHg 53%
    18:00 +25°C° 0.1 mm 1 mps 636 mmHg 64%
    19:00 +22°C° 0.1 mm 1 mps 636 mmHg 75%
    20:00 +21°C° 0.3 mm 1 mps 636 mmHg 79%
    21:00 +20°C° 0.3 mm 1 mps 637 mmHg 83%
    22:00 +19°C° 0.3 mm 1 mps 637 mmHg 86%
    23:00 +19°C° 0.1 mm 1 mps 637 mmHg 87%

    28 August, Wednesday

    Time Temperature Precipitation Wind Pressure Humidity
    00:00 +17°C° 0.1 mm 0 mps 636 mmHg 87%
    01:00 +16°C° 0.1 mm 0 mps 636 mmHg 87%
    02:00 +16°C° 0 mm 0 mps 636 mmHg 88%
    03:00 +16°C° 0 mm 0 mps 636 mmHg 89%
    04:00 +15°C° 0 mm 0 mps 636 mmHg 91%
    05:00 +16°C° 0 mm 0 mps 636 mmHg 89%
    06:00 +17°C° 0 mm 0 mps 637 mmHg 87%
    07:00 +17°C° 0 mm 0 mps 637 mmHg 86%
    08:00 +20°C° 0 mm 0 mps 638 mmHg 74%
    09:00 +24°C° 0 mm 1 mps 639 mmHg 63%
    10:00 +27°C° 0 mm 1 mps 640 mmHg 51%
    11:00 +29°C° 0 mm 1 mps 640 mmHg 45%
    12:00 +30°C° 0 mm 1 mps 640 mmHg 39%
    13:00 +32°C° 0 mm 1 mps 640 mmHg 34%
    14:00 +31°C° 0 mm 1 mps 639 mmHg 34%
    15:00 +31°C° 0 mm 1 mps 638 mmHg 35%
    16:00 +31°C° 0 mm 1 mps 638 mmHg 36%
    17:00 +28°C° 0.1 mm 1 mps 637 mmHg 49%
    18:00 +25°C° 0.1 mm 1 mps 637 mmHg 62%
    19:00 +22°C° 0.1 mm 1 mps 636 mmHg 75%
    20:00 +21°C° 0.4 mm 1 mps 637 mmHg 80%
    21:00 +20°C° 0.4 mm 1 mps 637 mmHg 85%
    22:00 +19°C° 0.4 mm 1 mps 637 mmHg 89%
    23:00 +19°C° 0 mm 1 mps 637 mmHg 90%

    29 August, Thursday

    Time Temperature Precipitation Wind Pressure Humidity
    00:00 +16°C° 0 mm 0 mps 636 mmHg 90%
    01:00 +16°C° 0 mm 0 mps 636 mmHg 90%
    02:00 +16°C° 0 mm 0 mps 636 mmHg 91%
    03:00 +16°C° 0 mm 0 mps 636 mmHg 91%
    04:00 +16°C° 0 mm 0 mps 636 mmHg 92%
    05:00 +16°C° 0 mm 0 mps 636 mmHg 90%
    06:00 +17°C° 0 mm 0 mps 637 mmHg 89%
    07:00 +17°C° 0 mm 0 mps 637 mmHg 88%
    08:00 +20°C° 0 mm 0 mps 639 mmHg 76%
    09:00 +23°C° 0 mm 0 mps 640 mmHg 65%
    10:00 +27°C° 0 mm 1 mps 641 mmHg 53%
    11:00 +29°C° 0.1 mm 1 mps 640 mmHg 49%
    12:00 +30°C° 0.1 mm 1 mps 640 mmHg 44%
    13:00 +31°C° 0.1 mm 1 mps 640 mmHg 39%
    14:00 +30°C° 0.2 mm 1 mps 639 mmHg 43%
    15:00 +29°C° 0.2 mm 1 mps 638 mmHg 46%
    16:00 +28°C° 0.2 mm 1 mps 638 mmHg 49%
    17:00 +26°C° 0.5 mm 1 mps 637 mmHg 62%
    18:00 +23°C° 0.5 mm 1 mps 637 mmHg 74%
    19:00 +20°C° 0.5 mm 1 mps 636 mmHg 87%
    20:00 +20°C° 0.3 mm 1 mps 637 mmHg 89%
    21:00 +17°C° 0.3 mm 0 mps 637 mmHg 91%
    22:00 +16°C° 0.3 mm 0 mps 637 mmHg 93%
    23:00 +16°C° 0 mm 0 mps 637 mmHg 93%
    Show more